owner,sensor,date,latitude,longitude,vertical_datum,wind_speed,wind_to_direction,wind_speed_of_gust,qcFlag 
WAVCIS,ioos:station:WAVCIS:CSI16:1,2009-04-01T00:00:00Z,29.4012,-89.0355,10.0,10.88,205.0,,'11111222,11111222,99999999' 
WAVCIS,ioos:station:WAVCIS:CSI16:1,2009-04-01T01:00:00Z,29.4012,-89.0355,10.0,7.29,224.0,,'11111222,11111222,99999999' 
WAVCIS,ioos:station:WAVCIS:CSI16:1,2009-04-01T02:00:00Z,29.4012,-89.0355,10.0,3.117,221.0,,'11111222,11111222,99999999' 
WAVCIS,ioos:station:WAVCIS:CSI16:1,2009-04-01T03:00:00Z,29.4012,-89.0355,10.0,6.01,195.0,,'11111222,11111222,99999999' 
WAVCIS,ioos:station:WAVCIS:CSI16:1,2009-04-01T04:00:00Z,29.4012,-89.0355,10.0,8.06,195.0,,'11111222,11111222,99999999' 
WAVCIS,ioos:station:WAVCIS:CSI16:1,2009-04-01T05:00:00Z,29.4012,-89.0355,10.0,4.746,221.0,,'11111222,11111222,99999999' 
WAVCIS,ioos:station:WAVCIS:CSI16:1,2009-04-01T06:00:00Z,29.4012,-89.0355,10.0,5.343,221.0,,'11111222,11111222,99999999' 
WAVCIS,ioos:station:WAVCIS:CSI16:1,2009-04-01T07:00:00Z,29.4012,-89.0355,10.0,3.696,238.0,,'11111222,11111222,99999999' 
WAVCIS,ioos:station:WAVCIS:CSI16:1,2009-04-01T08:00:00Z,29.4012,-89.0355,10.0,2.126,287.0,,'11111222,11111222,99999999' 
WAVCIS,ioos:station:WAVCIS:CSI16:1,2009-04-01T09:00:00Z,29.4012,-89.0355,10.0,5.266,323.0,,'11111222,11111222,99999999' 
WAVCIS,ioos:station:WAVCIS:CSI16:1,2009-04-01T10:00:00Z,29.4012,-89.0355,10.0,6.805,346.0,,'11111222,11111222,99999999' 
WAVCIS,ioos:station:WAVCIS:CSI16:1,2009-04-01T11:00:00Z,29.4012,-89.0355,10.0,13.3,5.0,,'11111222,11111222,99999999' 
WAVCIS,ioos:station:WAVCIS:CSI16:1,2009-04-01T12:00:00Z,29.4012,-89.0355,10.0,14.44,10.0,,'11111222,11111222,99999999' 
WAVCIS,ioos:station:WAVCIS:CSI16:1,2009-04-01T13:00:00Z,29.4012,-89.0355,10.0,14.08,11.0,,'11111222,11111222,99999999' 
WAVCIS,ioos:station:WAVCIS:CSI16:1,2009-04-01T14:00:00Z,29.4012,-89.0355,10.0,12.74,21.0,,'11111222,11111222,99999999' 
WAVCIS,ioos:station:WAVCIS:CSI16:1,2009-04-01T15:00:00Z,29.4012,-89.0355,10.0,10.12,38.0,,'11111222,11111222,99999999' 
WAVCIS,ioos:station:WAVCIS:CSI16:1,2009-04-01T16:00:00Z,29.4012,-89.0355,10.0,10.73,63.0,,'11111222,11111222,99999999' 
WAVCIS,ioos:station:WAVCIS:CSI16:1,2009-04-01T17:00:00Z,29.4012,-89.0355,10.0,7.37,57.0,,'11111222,11111222,99999999' 
WAVCIS,ioos:station:WAVCIS:CSI16:1,2009-04-01T18:00:00Z,29.4012,-89.0355,10.0,5.267,55.0,,'11111222,11111222,99999999' 
WAVCIS,ioos:station:WAVCIS:CSI16:1,2009-04-01T19:00:00Z,29.4012,-89.0355,10.0,5.939,60.0,,'11111222,11111222,99999999' 
WAVCIS,ioos:station:WAVCIS:CSI16:1,2009-04-01T20:00:00Z,29.4012,-89.0355,10.0,7.03,87.0,,'11111222,11111222,99999999' 
WAVCIS,ioos:station:WAVCIS:CSI16:1,2009-04-01T21:00:00Z,29.4012,-89.0355,10.0,5.585,104.0,,'11111222,11111222,99999999' 
WAVCIS,ioos:station:WAVCIS:CSI16:1,2009-04-01T22:00:00Z,29.4012,-89.0355,10.0,6.63,105.0,,'11111222,11111222,99999999' 
WAVCIS,ioos:station:WAVCIS:CSI16:1,2009-04-01T23:00:00Z,29.4012,-89.0355,10.0,2.889,66.0,,'11111222,11111222,99999999' 
WAVCIS,ioos:station:WAVCIS:CSI16:1,2009-04-02T00:00:00Z,29.4012,-89.0355,10.0,1.728,57.0,,'11111222,11111222,99999999' 
WAVCIS,ioos:station:WAVCIS:CSI16:1,2009-04-02T01:00:00Z,29.4012,-89.0355,10.0,3.776,115.0,,'11111222,11111222,99999999' 
WAVCIS,ioos:station:WAVCIS:CSI16:1,2009-04-02T02:00:00Z,29.4012,-89.0355,10.0,4.943,129.0,,'11111222,11111222,99999999' 
WAVCIS,ioos:station:WAVCIS:CSI16:1,2009-04-02T03:00:00Z,29.4012,-89.0355,10.0,5.029,142.0,,'11111222,11111222,99999999' 
WAVCIS,ioos:station:WAVCIS:CSI16:1,2009-04-02T04:00:00Z,29.4012,-89.0355,10.0,8.06,149.0,,'11111222,11111222,99999999' 
WAVCIS,ioos:station:WAVCIS:CSI16:1,2009-04-02T05:00:00Z,29.4012,-89.0355,10.0,11.69,156.0,,'11111222,11111222,99999999' 
WAVCIS,ioos:station:WAVCIS:CSI16:1,2009-04-02T06:00:00Z,29.4012,-89.0355,10.0,10.04,162.0,,'11111222,11111222,99999999' 
WAVCIS,ioos:station:WAVCIS:CSI16:1,2009-04-02T07:00:00Z,29.4012,-89.0355,10.0,11.78,170.0,,'11111222,11111222,99999999' 
WAVCIS,ioos:station:WAVCIS:CSI16:1,2009-04-02T08:00:00Z,29.4012,-89.0355,10.0,3.699,244.0,,'11111222,11111222,99999999' 
WAVCIS,ioos:station:WAVCIS:CSI16:1,2009-04-02T09:00:00Z,29.4012,-89.0355,10.0,4.607,232.0,,'11111222,11111222,99999999' 
WAVCIS,ioos:station:WAVCIS:CSI16:1,2009-04-02T10:00:00Z,29.4012,-89.0355,10.0,1.743,242.0,,'11111222,11111222,99999999' 
WAVCIS,ioos:station:WAVCIS:CSI16:1,2009-04-02T11:00:00Z,29.4012,-89.0355,10.0,0.947,341.0,,'11111222,11111222,99999999' 
WAVCIS,ioos:station:WAVCIS:CSI16:1,2009-04-02T12:00:00Z,29.4012,-89.0355,10.0,3.486,333.0,,'11111222,11111222,99999999' 
WAVCIS,ioos:station:WAVCIS:CSI16:1,2009-04-02T13:00:00Z,29.4012,-89.0355,10.0,6.293,292.0,,'11111222,11111222,99999999' 
WAVCIS,ioos:station:WAVCIS:CSI16:1,2009-04-02T14:00:00Z,29.4012,-89.0355,10.0,2.341,323.0,,'11111222,11111222,99999999' 
WAVCIS,ioos:station:WAVCIS:CSI16:1,2009-04-02T15:00:00Z,29.4012,-89.0355,10.0,5.858,141.0,,'11111222,11111222,99999999' 
WAVCIS,ioos:station:WAVCIS:CSI16:1,2009-04-02T16:00:00Z,29.4012,-89.0355,10.0,7.17,134.0,,'11111222,11111222,99999999' 
WAVCIS,ioos:station:WAVCIS:CSI16:1,2009-04-02T17:00:00Z,29.4012,-89.0355,10.0,7.99,131.0,,'11111222,11111222,99999999' 
WAVCIS,ioos:station:WAVCIS:CSI16:1,2009-04-02T18:00:00Z,29.4012,-89.0355,10.0,8.41,152.0,,'11111222,11111222,99999999' 
WAVCIS,ioos:station:WAVCIS:CSI16:1,2009-04-02T19:00:00Z,29.4012,-89.0355,10.0,10.8,192.0,,'11111222,11111222,99999999' 
WAVCIS,ioos:station:WAVCIS:CSI16:1,2009-04-02T20:00:00Z,29.4012,-89.0355,10.0,12.79,219.0,,'11111222,11111222,99999999' 
WAVCIS,ioos:station:WAVCIS:CSI16:1,2009-04-02T21:00:00Z,29.4012,-89.0355,10.0,14.1,224.0,,'11111222,11111222,99999999' 
WAVCIS,ioos:station:WAVCIS:CSI16:1,2009-04-02T22:00:00Z,29.4012,-89.0355,10.0,14.28,228.0,,'11111222,11111222,99999999' 
WAVCIS,ioos:station:WAVCIS:CSI16:1,2009-04-02T23:00:00Z,29.4012,-89.0355,10.0,14.15,232.0,,'11111222,11111222,99999999' 
WAVCIS,ioos:station:WAVCIS:CSI16:1,2009-04-03T00:00:00Z,29.4012,-89.0355,10.0,9.85,237.0,,'11111222,11111222,99999999' 
WAVCIS,ioos:station:WAVCIS:CSI16:1,2009-04-03T01:00:00Z,29.4012,-89.0355,10.0,12.13,248.0,,'11111222,11111222,99999999' 
WAVCIS,ioos:station:WAVCIS:CSI16:1,2009-04-03T02:00:00Z,29.4012,-89.0355,10.0,12.97,265.0,,'11111222,11111222,99999999' 
WAVCIS,ioos:station:WAVCIS:CSI16:1,2009-04-03T03:00:00Z,29.4012,-89.0355,10.0,10.5,257.0,,'11111222,11111222,99999999' 
WAVCIS,ioos:station:WAVCIS:CSI16:1,2009-04-03T04:00:00Z,29.4012,-89.0355,10.0,8.83,254.0,,'11111222,11111222,99999999' 
WAVCIS,ioos:station:WAVCIS:CSI16:1,2009-04-03T05:00:00Z,29.4012,-89.0355,10.0,10.37,268.0,,'11111222,11111222,99999999' 
WAVCIS,ioos:station:WAVCIS:CSI16:1,2009-04-03T06:00:00Z,29.4012,-89.0355,10.0,10.24,278.0,,'11111222,11111222,99999999' 
WAVCIS,ioos:station:WAVCIS:CSI16:1,2009-04-03T07:00:00Z,29.4012,-89.0355,10.0,7.39,285.0,,'11111222,11111222,99999999' 
WAVCIS,ioos:station:WAVCIS:CSI16:1,2009-04-03T08:00:00Z,29.4012,-89.0355,10.0,9.61,315.0,,'11111222,11111222,99999999' 
WAVCIS,ioos:station:WAVCIS:CSI16:1,2009-04-03T09:00:00Z,29.4012,-89.0355,10.0,10.42,318.0,,'11111222,11111222,99999999' 
WAVCIS,ioos:station:WAVCIS:CSI16:1,2009-04-03T10:00:00Z,29.4012,-89.0355,10.0,11.14,324.0,,'11111222,11111222,99999999' 
WAVCIS,ioos:station:WAVCIS:CSI16:1,2009-04-03T11:00:00Z,29.4012,-89.0355,10.0,10.9,329.0,,'11111222,11111222,99999999' 
WAVCIS,ioos:station:WAVCIS:CSI16:1,2009-04-03T12:00:00Z,29.4012,-89.0355,10.0,8.56,332.0,,'11111222,11111222,99999999' 
WAVCIS,ioos:station:WAVCIS:CSI16:1,2009-04-03T13:00:00Z,29.4012,-89.0355,10.0,8.03,337.0,,'11111222,11111222,99999999' 
WAVCIS,ioos:station:WAVCIS:CSI16:1,2009-04-03T14:00:00Z,29.4012,-89.0355,10.0,7.3,339.0,,'11111222,11111222,99999999' 
WAVCIS,ioos:station:WAVCIS:CSI16:1,2009-04-03T15:00:00Z,29.4012,-89.0355,10.0,6.204,342.0,,'11111222,11111222,99999999' 
WAVCIS,ioos:station:WAVCIS:CSI16:1,2009-04-03T16:00:00Z,29.4012,-89.0355,10.0,5.077,338.0,,'11111222,11111222,99999999' 
WAVCIS,ioos:station:WAVCIS:CSI16:1,2009-04-03T17:00:00Z,29.4012,-89.0355,10.0,4.685,334.0,,'11111222,11111222,99999999' 
WAVCIS,ioos:station:WAVCIS:CSI16:1,2009-04-03T18:00:00Z,29.4012,-89.0355,10.0,3.889,324.0,,'11111222,11111222,99999999' 
WAVCIS,ioos:station:WAVCIS:CSI16:1,2009-04-03T19:00:00Z,29.4012,-89.0355,10.0,3.756,324.0,,'11111222,11111222,99999999' 
WAVCIS,ioos:station:WAVCIS:CSI16:1,2009-04-03T20:00:00Z,29.4012,-89.0355,10.0,4.099,276.0,,'11111222,11111222,99999999' 
WAVCIS,ioos:station:WAVCIS:CSI16:1,2009-04-03T21:00:00Z,29.4012,-89.0355,10.0,4.975,328.0,,'11111222,11111222,99999999' 
WAVCIS,ioos:station:WAVCIS:CSI16:1,2009-04-03T22:00:00Z,29.4012,-89.0355,10.0,2.483,282.0,,'11111222,11111222,99999999' 
WAVCIS,ioos:station:WAVCIS:CSI16:1,2009-04-03T23:00:00Z,29.4012,-89.0355,10.0,1.899,303.0,,'11111222,11111222,99999999' 
WAVCIS,ioos:station:WAVCIS:CSI16:1,2009-04-04T00:00:00Z,29.4012,-89.0355,10.0,2.529,252.0,,'11111222,11111222,99999999' 
WAVCIS,ioos:station:WAVCIS:CSI16:1,2009-04-04T01:00:00Z,29.4012,-89.0355,10.0,3.034,264.0,,'11111222,11111222,99999999' 
WAVCIS,ioos:station:WAVCIS:CSI16:1,2009-04-04T02:00:00Z,29.4012,-89.0355,10.0,4.294,230.0,,'11111222,11111222,99999999' 
WAVCIS,ioos:station:WAVCIS:CSI16:1,2009-04-04T03:00:00Z,29.4012,-89.0355,10.0,4.518,221.0,,'11111222,11111222,99999999' 
WAVCIS,ioos:station:WAVCIS:CSI16:1,2009-04-04T04:00:00Z,29.4012,-89.0355,10.0,2.602,214.0,,'11111222,11111222,99999999' 
WAVCIS,ioos:station:WAVCIS:CSI16:1,2009-04-04T05:00:00Z,29.4012,-89.0355,10.0,2.784,237.0,,'11111222,11111222,99999999' 
WAVCIS,ioos:station:WAVCIS:CSI16:1,2009-04-04T06:00:00Z,29.4012,-89.0355,10.0,2.029,200.0,,'11111222,11111222,99999999' 
WAVCIS,ioos:station:WAVCIS:CSI16:1,2009-04-04T07:00:00Z,29.4012,-89.0355,10.0,1.173,122.0,,'11111222,11111222,99999999' 
WAVCIS,ioos:station:WAVCIS:CSI16:1,2009-04-04T08:00:00Z,29.4012,-89.0355,10.0,1.872,159.0,,'11111222,11111222,99999999' 
WAVCIS,ioos:station:WAVCIS:CSI16:1,2009-04-04T09:00:00Z,29.4012,-89.0355,10.0,3.192,169.0,,'11111222,11111222,99999999' 
WAVCIS,ioos:station:WAVCIS:CSI16:1,2009-04-04T10:00:00Z,29.4012,-89.0355,10.0,1.946,173.0,,'11111222,11111222,99999999' 
WAVCIS,ioos:station:WAVCIS:CSI16:1,2009-04-04T11:00:00Z,29.4012,-89.0355,10.0,3.049,167.0,,'11111222,11111222,99999999' 
WAVCIS,ioos:station:WAVCIS:CSI16:1,2009-04-04T12:00:00Z,29.4012,-89.0355,10.0,5.11,134.0,,'11111222,11111222,99999999' 
WAVCIS,ioos:station:WAVCIS:CSI16:1,2009-04-04T13:00:00Z,29.4012,-89.0355,10.0,7.85,113.0,,'11111222,11111222,99999999' 
WAVCIS,ioos:station:WAVCIS:CSI16:1,2009-04-04T14:00:00Z,29.4012,-89.0355,10.0,8.63,116.0,,'11111222,11111222,99999999' 
WAVCIS,ioos:station:WAVCIS:CSI16:1,2009-04-04T15:00:00Z,29.4012,-89.0355,10.0,8.39,118.0,,'11111222,11111222,99999999' 
WAVCIS,ioos:station:WAVCIS:CSI16:1,2009-04-04T16:00:00Z,29.4012,-89.0355,10.0,7.04,125.0,,'11111222,11111222,99999999' 
WAVCIS,ioos:station:WAVCIS:CSI16:1,2009-04-04T17:00:00Z,29.4012,-89.0355,10.0,7.02,127.0,,'11111222,11111222,99999999' 
WAVCIS,ioos:station:WAVCIS:CSI16:1,2009-04-04T18:00:00Z,29.4012,-89.0355,10.0,7.71,122.0,,'11111222,11111222,99999999' 
WAVCIS,ioos:station:WAVCIS:CSI16:1,2009-04-04T19:00:00Z,29.4012,-89.0355,10.0,8.28,129.0,,'11111222,11111222,99999999' 
WAVCIS,ioos:station:WAVCIS:CSI16:1,2009-04-04T20:00:00Z,29.4012,-89.0355,10.0,8.21,129.0,,'11111222,11111222,99999999' 
WAVCIS,ioos:station:WAVCIS:CSI16:1,2009-04-04T21:00:00Z,29.4012,-89.0355,10.0,7.45,128.0,,'11111222,11111222,99999999' 
WAVCIS,ioos:station:WAVCIS:CSI16:1,2009-04-04T22:00:00Z,29.4012,-89.0355,10.0,7.76,127.0,,'11111222,11111222,99999999' 
WAVCIS,ioos:station:WAVCIS:CSI16:1,2009-04-04T23:00:00Z,29.4012,-89.0355,10.0,8.22,129.0,,'11111222,11111222,99999999' 
WAVCIS,ioos:station:WAVCIS:CSI16:1,2009-04-05T00:00:00Z,29.4012,-89.0355,10.0,7.24,119.0,,'11111222,11111222,99999999' 
WAVCIS,ioos:station:WAVCIS:CSI16:1,2009-04-05T01:00:00Z,29.4012,-89.0355,10.0,7.78,116.0,,'11111222,11111222,99999999' 
WAVCIS,ioos:station:WAVCIS:CSI16:1,2009-04-05T02:00:00Z,29.4012,-89.0355,10.0,7.48,116.0,,'11111222,11111222,99999999' 
WAVCIS,ioos:station:WAVCIS:CSI16:1,2009-04-05T03:00:00Z,29.4012,-89.0355,10.0,9.1,120.0,,'11111222,11111222,99999999' 
WAVCIS,ioos:station:WAVCIS:CSI16:1,2009-04-05T04:00:00Z,29.4012,-89.0355,10.0,9.42,123.0,,'11111222,11111222,99999999' 
WAVCIS,ioos:station:WAVCIS:CSI16:1,2009-04-05T05:00:00Z,29.4012,-89.0355,10.0,7.74,136.0,,'11111222,11111222,99999999' 
WAVCIS,ioos:station:WAVCIS:CSI16:1,2009-04-05T06:00:00Z,29.4012,-89.0355,10.0,8.35,147.0,,'11111222,11111222,99999999' 
WAVCIS,ioos:station:WAVCIS:CSI16:1,2009-04-05T07:00:00Z,29.4012,-89.0355,10.0,8.1,155.0,,'11111222,11111222,99999999' 
WAVCIS,ioos:station:WAVCIS:CSI16:1,2009-04-05T08:00:00Z,29.4012,-89.0355,10.0,6.513,151.0,,'11111222,11111222,99999999' 
WAVCIS,ioos:station:WAVCIS:CSI16:1,2009-04-05T09:00:00Z,29.4012,-89.0355,10.0,6.507,152.0,,'11111222,11111222,99999999' 
WAVCIS,ioos:station:WAVCIS:CSI16:1,2009-04-05T10:00:00Z,29.4012,-89.0355,10.0,5.881,163.0,,'11111222,11111222,99999999' 
WAVCIS,ioos:station:WAVCIS:CSI16:1,2009-04-05T11:00:00Z,29.4012,-89.0355,10.0,5.754,161.0,,'11111222,11111222,99999999' 
WAVCIS,ioos:station:WAVCIS:CSI16:1,2009-04-05T12:00:00Z,29.4012,-89.0355,10.0,4.782,167.0,,'11111222,11111222,99999999' 
WAVCIS,ioos:station:WAVCIS:CSI16:1,2009-04-05T13:00:00Z,29.4012,-89.0355,10.0,7.04,166.0,,'11111222,11111222,99999999' 
WAVCIS,ioos:station:WAVCIS:CSI16:1,2009-04-05T14:00:00Z,29.4012,-89.0355,10.0,4.905,166.0,,'11111222,11111222,99999999' 
WAVCIS,ioos:station:WAVCIS:CSI16:1,2009-04-05T15:00:00Z,29.4012,-89.0355,10.0,7.32,179.0,,'11111222,11111222,99999999' 
WAVCIS,ioos:station:WAVCIS:CSI16:1,2009-04-05T16:00:00Z,29.4012,-89.0355,10.0,6.15,181.0,,'11111222,11111222,99999999' 
WAVCIS,ioos:station:WAVCIS:CSI16:1,2009-04-05T17:00:00Z,29.4012,-89.0355,10.0,6.121,184.0,,'11111222,11111222,99999999' 
WAVCIS,ioos:station:WAVCIS:CSI16:1,2009-04-05T18:00:00Z,29.4012,-89.0355,10.0,6.181,201.0,,'11111222,11111222,99999999' 
WAVCIS,ioos:station:WAVCIS:CSI16:1,2009-04-05T19:00:00Z,29.4012,-89.0355,10.0,7.1,226.0,,'11111222,11111222,99999999' 
WAVCIS,ioos:station:WAVCIS:CSI16:1,2009-04-05T20:00:00Z,29.4012,-89.0355,10.0,5.951,231.0,,'11111222,11111222,99999999' 
WAVCIS,ioos:station:WAVCIS:CSI16:1,2009-04-05T21:00:00Z,29.4012,-89.0355,10.0,8.33,255.0,,'11111222,11111222,99999999' 
WAVCIS,ioos:station:WAVCIS:CSI16:1,2009-04-05T22:00:00Z,29.4012,-89.0355,10.0,7.24,246.0,,'11111222,11111222,99999999' 
WAVCIS,ioos:station:WAVCIS:CSI16:1,2009-04-05T23:00:00Z,29.4012,-89.0355,10.0,6.047,239.0,,'11111222,11111222,99999999' 
WAVCIS,ioos:station:WAVCIS:CSI16:1,2009-04-06T00:00:00Z,29.4012,-89.0355,10.0,6.643,223.0,,'11111222,11111222,99999999' 
WAVCIS,ioos:station:WAVCIS:CSI16:1,2009-04-06T01:00:00Z,29.4012,-89.0355,10.0,6.607,239.0,,'11111222,11111222,99999999' 
WAVCIS,ioos:station:WAVCIS:CSI16:1,2009-04-06T02:00:00Z,29.4012,-89.0355,10.0,4.979,224.0,,'11111222,11111222,99999999' 
WAVCIS,ioos:station:WAVCIS:CSI16:1,2009-04-06T03:00:00Z,29.4012,-89.0355,10.0,6.205,235.0,,'11111222,11111222,99999999' 
WAVCIS,ioos:station:WAVCIS:CSI16:1,2009-04-06T04:00:00Z,29.4012,-89.0355,10.0,6.959,252.0,,'11111222,11111222,99999999' 
WAVCIS,ioos:station:WAVCIS:CSI16:1,2009-04-06T05:00:00Z,29.4012,-89.0355,10.0,7.98,263.0,,'11111222,11111222,99999999' 
WAVCIS,ioos:station:WAVCIS:CSI16:1,2009-04-06T06:00:00Z,29.4012,-89.0355,10.0,13.52,319.0,,'11111222,11111222,99999999' 
WAVCIS,ioos:station:WAVCIS:CSI16:1,2009-04-06T07:00:00Z,29.4012,-89.0355,10.0,16.25,325.0,,'11111222,11111222,99999999' 
WAVCIS,ioos:station:WAVCIS:CSI16:1,2009-04-06T08:00:00Z,29.4012,-89.0355,10.0,15.85,326.0,,'11111222,11111222,99999999' 
WAVCIS,ioos:station:WAVCIS:CSI16:1,2009-04-06T09:00:00Z,29.4012,-89.0355,10.0,17.15,336.0,,'11111222,11111222,99999999' 
WAVCIS,ioos:station:WAVCIS:CSI16:1,2009-04-06T10:00:00Z,29.4012,-89.0355,10.0,15.84,333.0,,'11111222,11111222,99999999' 
WAVCIS,ioos:station:WAVCIS:CSI16:1,2009-04-06T11:00:00Z,29.4012,-89.0355,10.0,14.64,339.0,,'11111222,11111222,99999999' 
WAVCIS,ioos:station:WAVCIS:CSI16:1,2009-04-06T12:00:00Z,29.4012,-89.0355,10.0,15.56,335.0,,'11111222,11111222,99999999' 
WAVCIS,ioos:station:WAVCIS:CSI16:1,2009-04-06T13:00:00Z,29.4012,-89.0355,10.0,13.86,343.0,,'11111222,11111222,99999999' 
WAVCIS,ioos:station:WAVCIS:CSI16:1,2009-04-06T14:00:00Z,29.4012,-89.0355,10.0,13.73,340.0,,'11111222,11111222,99999999' 
WAVCIS,ioos:station:WAVCIS:CSI16:1,2009-04-06T15:00:00Z,29.4012,-89.0355,10.0,12.84,334.0,,'11111222,11111222,99999999' 
WAVCIS,ioos:station:WAVCIS:CSI16:1,2009-04-06T16:00:00Z,29.4012,-89.0355,10.0,11.87,331.0,,'11111222,11111222,99999999' 
WAVCIS,ioos:station:WAVCIS:CSI16:1,2009-04-06T17:00:00Z,29.4012,-89.0355,10.0,11.39,330.0,,'11111222,11111222,99999999' 
WAVCIS,ioos:station:WAVCIS:CSI16:1,2009-04-06T18:00:00Z,29.4012,-89.0355,10.0,11.08,323.0,,'11111222,11111222,99999999' 
WAVCIS,ioos:station:WAVCIS:CSI16:1,2009-04-06T19:00:00Z,29.4012,-89.0355,10.0,12.36,323.0,,'11111222,11111222,99999999' 
WAVCIS,ioos:station:WAVCIS:CSI16:1,2009-04-06T20:00:00Z,29.4012,-89.0355,10.0,12.88,321.0,,'11111222,11111222,99999999' 
WAVCIS,ioos:station:WAVCIS:CSI16:1,2009-04-06T21:00:00Z,29.4012,-89.0355,10.0,12.41,319.0,,'11111222,11111222,99999999' 
WAVCIS,ioos:station:WAVCIS:CSI16:1,2009-04-06T22:00:00Z,29.4012,-89.0355,10.0,11.8,316.0,,'11111222,11111222,99999999' 
WAVCIS,ioos:station:WAVCIS:CSI16:1,2009-04-06T23:00:00Z,29.4012,-89.0355,10.0,10.79,309.0,,'11111222,11111222,99999999' 
WAVCIS,ioos:station:WAVCIS:CSI16:1,2009-04-07T00:00:00Z,29.4012,-89.0355,10.0,9.87,308.0,,'11111222,11111222,99999999' 
WAVCIS,ioos:station:WAVCIS:CSI16:1,2009-04-07T01:00:00Z,29.4012,-89.0355,10.0,10.99,314.0,,'11111222,11111222,99999999' 
WAVCIS,ioos:station:WAVCIS:CSI16:1,2009-04-07T02:00:00Z,29.4012,-89.0355,10.0,10.85,313.0,,'11111222,11111222,99999999' 
WAVCIS,ioos:station:WAVCIS:CSI16:1,2009-04-07T03:00:00Z,29.4012,-89.0355,10.0,11.93,313.0,,'11111222,11111222,99999999' 
WAVCIS,ioos:station:WAVCIS:CSI16:1,2009-04-07T04:00:00Z,29.4012,-89.0355,10.0,14.41,338.0,,'11111222,11111222,99999999' 
WAVCIS,ioos:station:WAVCIS:CSI16:1,2009-04-07T05:00:00Z,29.4012,-89.0355,10.0,15.12,336.0,,'11111222,11111222,99999999' 
WAVCIS,ioos:station:WAVCIS:CSI16:1,2009-04-07T06:00:00Z,29.4012,-89.0355,10.0,17.23,334.0,,'11111222,11111222,99999999' 
WAVCIS,ioos:station:WAVCIS:CSI16:1,2009-04-07T07:00:00Z,29.4012,-89.0355,10.0,17.6,326.0,,'11111222,11111222,99999999' 
WAVCIS,ioos:station:WAVCIS:CSI16:1,2009-04-07T08:00:00Z,29.4012,-89.0355,10.0,15.95,331.0,,'11111222,11111222,99999999' 
WAVCIS,ioos:station:WAVCIS:CSI16:1,2009-04-07T09:00:00Z,29.4012,-89.0355,10.0,13.78,332.0,,'11111222,11111222,99999999' 
WAVCIS,ioos:station:WAVCIS:CSI16:1,2009-04-07T10:00:00Z,29.4012,-89.0355,10.0,13.72,333.0,,'11111222,11111222,99999999' 
WAVCIS,ioos:station:WAVCIS:CSI16:1,2009-04-07T11:00:00Z,29.4012,-89.0355,10.0,13.47,337.0,,'11111222,11111222,99999999' 
WAVCIS,ioos:station:WAVCIS:CSI16:1,2009-04-07T12:00:00Z,29.4012,-89.0355,10.0,13.34,337.0,,'11111222,11111222,99999999' 
WAVCIS,ioos:station:WAVCIS:CSI16:1,2009-04-07T13:00:00Z,29.4012,-89.0355,10.0,11.36,331.0,,'11111222,11111222,99999999' 
WAVCIS,ioos:station:WAVCIS:CSI16:1,2009-04-07T14:00:00Z,29.4012,-89.0355,10.0,11.6,326.0,,'11111222,11111222,99999999' 
WAVCIS,ioos:station:WAVCIS:CSI16:1,2009-04-07T15:00:00Z,29.4012,-89.0355,10.0,10.04,326.0,,'11111222,11111222,99999999' 
WAVCIS,ioos:station:WAVCIS:CSI16:1,2009-04-07T16:00:00Z,29.4012,-89.0355,10.0,10.17,321.0,,'11111222,11111222,99999999' 
WAVCIS,ioos:station:WAVCIS:CSI16:1,2009-04-07T17:00:00Z,29.4012,-89.0355,10.0,9.62,316.0,,'11111222,11111222,99999999' 
WAVCIS,ioos:station:WAVCIS:CSI16:1,2009-04-07T18:00:00Z,29.4012,-89.0355,10.0,8.86,319.0,,'11111222,11111222,99999999' 
WAVCIS,ioos:station:WAVCIS:CSI16:1,2009-04-07T19:00:00Z,29.4012,-89.0355,10.0,7.79,304.0,,'11111222,11111222,99999999' 
WAVCIS,ioos:station:WAVCIS:CSI16:1,2009-04-07T20:00:00Z,29.4012,-89.0355,10.0,8.39,299.0,,'11111222,11111222,99999999' 
WAVCIS,ioos:station:WAVCIS:CSI16:1,2009-04-07T21:00:00Z,29.4012,-89.0355,10.0,8.22,307.0,,'11111222,11111222,99999999' 
WAVCIS,ioos:station:WAVCIS:CSI16:1,2009-04-07T22:00:00Z,29.4012,-89.0355,10.0,8.33,307.0,,'11111222,11111222,99999999' 
WAVCIS,ioos:station:WAVCIS:CSI16:1,2009-04-07T23:00:00Z,29.4012,-89.0355,10.0,8.27,306.0,,'11111222,11111222,99999999' 
WAVCIS,ioos:station:WAVCIS:CSI16:1,2009-04-08T00:00:00Z,29.4012,-89.0355,10.0,7.08,300.0,,'11111222,11111222,99999999' 
WAVCIS,ioos:station:WAVCIS:CSI16:1,2009-04-08T01:00:00Z,29.4012,-89.0355,10.0,7.58,271.0,,'11111222,11111222,99999999' 
WAVCIS,ioos:station:WAVCIS:CSI16:1,2009-04-08T02:00:00Z,29.4012,-89.0355,10.0,6.574,283.0,,'11111222,11111222,99999999' 
WAVCIS,ioos:station:WAVCIS:CSI16:1,2009-04-08T03:00:00Z,29.4012,-89.0355,10.0,8.2,275.0,,'11111222,11111222,99999999' 
WAVCIS,ioos:station:WAVCIS:CSI16:1,2009-04-08T04:00:00Z,29.4012,-89.0355,10.0,7.03,282.0,,'11111222,11111222,99999999' 
WAVCIS,ioos:station:WAVCIS:CSI16:1,2009-04-08T05:00:00Z,29.4012,-89.0355,10.0,7.33,276.0,,'11111222,11111222,99999999' 
WAVCIS,ioos:station:WAVCIS:CSI16:1,2009-04-08T06:00:00Z,29.4012,-89.0355,10.0,6.705,280.0,,'11111222,11111222,99999999' 
WAVCIS,ioos:station:WAVCIS:CSI16:1,2009-04-08T07:00:00Z,29.4012,-89.0355,10.0,6.859,277.0,,'11111222,11111222,99999999' 
WAVCIS,ioos:station:WAVCIS:CSI16:1,2009-04-08T08:00:00Z,29.4012,-89.0355,10.0,5.727,288.0,,'11111222,11111222,99999999' 
WAVCIS,ioos:station:WAVCIS:CSI16:1,2009-04-08T09:00:00Z,29.4012,-89.0355,10.0,5.715,286.0,,'11111222,11111222,99999999' 
WAVCIS,ioos:station:WAVCIS:CSI16:1,2009-04-08T10:00:00Z,29.4012,-89.0355,10.0,5.811,270.0,,'11111222,11111222,99999999' 
WAVCIS,ioos:station:WAVCIS:CSI16:1,2009-04-08T11:00:00Z,29.4012,-89.0355,10.0,5.22,255.0,,'11111222,11111222,99999999' 
WAVCIS,ioos:station:WAVCIS:CSI16:1,2009-04-08T12:00:00Z,29.4012,-89.0355,10.0,3.432,253.0,,'11111222,11111222,99999999' 
WAVCIS,ioos:station:WAVCIS:CSI16:1,2009-04-08T13:00:00Z,29.4012,-89.0355,10.0,2.471,226.0,,'11111222,11111222,99999999' 
WAVCIS,ioos:station:WAVCIS:CSI16:1,2009-04-08T14:00:00Z,29.4012,-89.0355,10.0,4.103,215.0,,'11111222,11111222,99999999' 
WAVCIS,ioos:station:WAVCIS:CSI16:1,2009-04-08T15:00:00Z,29.4012,-89.0355,10.0,4.14,194.0,,'11111222,11111222,99999999' 
WAVCIS,ioos:station:WAVCIS:CSI16:1,2009-04-08T16:00:00Z,29.4012,-89.0355,10.0,5.349,182.0,,'11111222,11111222,99999999' 
WAVCIS,ioos:station:WAVCIS:CSI16:1,2009-04-08T17:00:00Z,29.4012,-89.0355,10.0,5.574,189.0,,'11111222,11111222,99999999' 
WAVCIS,ioos:station:WAVCIS:CSI16:1,2009-04-08T18:00:00Z,29.4012,-89.0355,10.0,7.1,209.0,,'11111222,11111222,99999999' 
WAVCIS,ioos:station:WAVCIS:CSI16:1,2009-04-08T19:00:00Z,29.4012,-89.0355,10.0,8.0,210.0,,'11111222,11111222,99999999' 
WAVCIS,ioos:station:WAVCIS:CSI16:1,2009-04-08T20:00:00Z,29.4012,-89.0355,10.0,8.63,220.0,,'11111222,11111222,99999999' 
WAVCIS,ioos:station:WAVCIS:CSI16:1,2009-04-08T21:00:00Z,29.4012,-89.0355,10.0,9.69,224.0,,'11111222,11111222,99999999' 
WAVCIS,ioos:station:WAVCIS:CSI16:1,2009-04-08T22:00:00Z,29.4012,-89.0355,10.0,10.18,224.0,,'11111222,11111222,99999999' 
WAVCIS,ioos:station:WAVCIS:CSI16:1,2009-04-08T23:00:00Z,29.4012,-89.0355,10.0,9.29,227.0,,'11111222,11111222,99999999' 
WAVCIS,ioos:station:WAVCIS:CSI16:1,2009-04-09T00:00:00Z,29.4012,-89.0355,10.0,10.24,232.0,,'11111222,11111222,99999999' 
WAVCIS,ioos:station:WAVCIS:CSI16:1,2009-04-09T01:00:00Z,29.4012,-89.0355,10.0,7.33,232.0,,'11111222,11111222,99999999' 
WAVCIS,ioos:station:WAVCIS:CSI16:1,2009-04-09T02:00:00Z,29.4012,-89.0355,10.0,6.543,222.0,,'11111222,11111222,99999999' 
WAVCIS,ioos:station:WAVCIS:CSI16:1,2009-04-09T03:00:00Z,29.4012,-89.0355,10.0,6.218,215.0,,'11111222,11111222,99999999' 
WAVCIS,ioos:station:WAVCIS:CSI16:1,2009-04-09T04:00:00Z,29.4012,-89.0355,10.0,7.05,222.0,,'11111222,11111222,99999999' 
WAVCIS,ioos:station:WAVCIS:CSI16:1,2009-04-09T05:00:00Z,29.4012,-89.0355,10.0,7.59,220.0,,'11111222,11111222,99999999' 